This is the latest recevied weather packets stored in our database for station/object CA3DPI. If no packets are shown the sender has not sent any weather packets the latest 10 day(s).
| Time | Temp. | Humidity | Pressure | Rain* | Wind** | Luminosity | Snow |
|---|---|---|---|---|---|---|---|
| 1777449911 | 16.67° C | 45% | 1019.8 hPa | - | - | - | - |
| 1777449311 | 16.67° C | 47% | 1019.8 hPa | - | - | - | - |
| 1777448711 | 16.67° C | 45% | 1019.9 hPa | - | - | - | - |
| 1777448111 | 16.11° C | 48% | 1019.8 hPa | - | - | - | - |
| 1777447511 | 16.11° C | 47% | 1019.9 hPa | - | - | - | - |
| 1777446910 | 16.67° C | 45% | 1020.1 hPa | - | - | - | - |
| 1777446310 | 16.67° C | 48% | 1020.1 hPa | - | - | - | - |
| 1777445710 | 17.22° C | 50% | 1020.2 hPa | - | - | - | - |
| 1777445110 | 17.22° C | 49% | 1020.4 hPa | - | - | - | - |
| 1777444510 | 17.22° C | 49% | 1020.4 hPa | - | - | - | - |
| 1777443910 | 17.22° C | 49% | 1020.5 hPa | - | - | - | - |
| 1777443310 | 17.22° C | 49% | 1020.5 hPa | - | - | - | - |
| 1777442709 | 17.22° C | 49% | 1020.6 hPa | - | - | - | - |
| 1777442109 | 17.22° C | 49% | 1020.7 hPa | - | - | - | - |
| 1777441509 | 17.22° C | 49% | 1020.8 hPa | - | - | - | - |
| 1777440909 | 17.78° C | 49% | 1021 hPa | - | - | - | - |
| 1777440309 | 17.78° C | 49% | 1021.1 hPa | - | - | - | - |
| 1777439708 | 17.78° C | 49% | 1021.1 hPa | - | - | - | - |
| 1777439108 | 17.78° C | 50% | 1021.1 hPa | - | - | - | - |
| 1777438508 | 17.22° C | 49% | 1021 hPa | - | - | - | - |
| 1777437916 | 17.22° C | 48% | 1021.1 hPa | - | - | - | - |
| 1777437316 | 17.22° C | 47% | 1021.2 hPa | - | - | - | - |
| 1777436715 | 17.22° C | 50% | 1021.2 hPa | - | - | - | - |
| 1777436115 | 16.67° C | 53% | 1021.3 hPa | - | - | - | - |
| 1777435514 | 17.22° C | 56% | 1021.3 hPa | - | - | - | - |
* Rain since midnight (hover to see other rain measurements)
** Current wind speed in m/s (hover to see current wind gust speed)